Berkhamsted, United Kingdom
Current Conditions -  °F | °C
As of 6:20 PM on Wednesday 28 Jan 2015 (Local Time) from EGGW Reporting Station
Clear Clear  
Wind Chill: 27°   Ceiling: Unl
Heat Index: 37°   Visibility: 6mi
Dew Point: 27°   Wind: 21mph
Humidity: 65%   Direction: 260°W
Pressure: 29.56"   Gusts: NA
Location:  51.76°N, 0.57°W
Report Text: EGGW 281820Z 26018KT CAVOK 03/M03 Q1001
Loading
Personal Weather Stations






























Interactive Weather Map New forecast layout! Learn more

10-Day Weather Forecast

Advertisements
Track Severe Weather on mobile